User: anonymous   Login
Location: Unspecified
(0.0000°N, 0.0000°E)
Time: 11:37:30
(UTC+00:00)
Language:

A-11 Canister half - Orbit

View from above orbital plane
View from above orbital plane
View from above satellite
View from above satellite

Ground track
Ground track

The orbit data is extracted from the following two-line orbital elements,

1 00053U 60009E   16239.41382032 -.00000084  00000-0  00000+0 0  9999
2 00053  47.2748 228.5025 0100373 290.7555  68.2503 12.17191693499133
Epoch (UTC): 26 August 2016 09:55:54
Eccentricity: 0.0100373
inclination: 47.2748°
perigee height: 1524 km
apogee height: 1685 km
right ascension of ascending node: 228.5025°
argument of perigee: 290.7555°
revolutions per day: 12.17191693
mean anomaly at epoch: 68.2503°
orbit number at epoch: 49913

The dashed part of the orbit path shows where the satellite is in the earth's shadow,  

DLR